Location: Maxwell Point
(34.0860°N, 81.2952°W)
Time: 09:56:36
(UTC-04:00)

Hubble Space Telescope - Visible Passes

Search period start: 23 July 2018 00:00
Search period end: 02 August 2018 00:00
Orbit: 537 x 541 km, 28.5° (Epoch: 22 July)

Date Brightness Start Highest point End Pass type
(mag) Time Alt. Az. Time Alt. Az. Time Alt. Az.
23 Jul 2.2 04:43:59 24° SSE 04:43:59 24° SSE 04:46:19 10° SE visible
24 Jul 2.9 04:34:54 14° SSE 04:34:54 14° SSE 04:35:44 10° SE visible
28 Jul 2.8 20:55:20 10° S 20:57:07 12° SSE 20:58:55 10° SE visible
28 Jul 3.0 22:34:11 10° SW 22:35:05 15° SW 22:35:05 15° SW visible
29 Jul 2.3 22:23:39 10° SW 22:25:45 23° SSW 22:25:45 23° SSW visible
30 Jul 1.7 22:13:10 10° WSW 22:16:15 32° SSW 22:16:15 32° SSW visible
31 Jul 1.4 22:02:43 10° WSW 22:06:33 36° S 22:06:36 36° S visible
01 Aug 1.4 21:52:17 10° WSW 21:56:08 37° S 21:56:51 34° SSE visible
